sat.trackr.live / text

‹ back to catalog

UNKNOWN

NORAD 87553

UNKNOWN UNKNOWN UNKNOWN

§ Identity

Operator
Country
Launch date
Launch site
Launch vehicle
Mass (kg)
RCS (m²)

External: N2YO · Heavens-Above

§ Orbital elements

Epoch: 2026-09-18T15:09:04.735584Z

Period
106.28 min
Inclination
65.6714°
Eccentricity
0.0676458
Mean motion
13.54893842 rev/d
Perigee alt
551.5 km
Apogee alt
1,557.1 km
Semi-major
7,432.4 km
B*
4.6800e-4
RAAN
37.8317°
Arg perigee
101.8665°
Mean anomaly
265.9015°
Rev number
62,915

§ Raw data

UNKNOWN1 87553U          26261.63130481  .00001360  00000+0  46800-3 0  99912 87553  65.6714  37.8317 0676458 101.8665 265.9015 13.54893842629159

JSON: /api/v1/satellites/87553 · /tle

For live sub-satellite position, see the globe view (requires WebGL).

§ Visibility from observer

Set your observer location to see the next 7 days of passes ≥ 10°. The values pass through the URL so the page stays shareable.

No JS? Fill the form by hand. The geolocation button needs JavaScript.